Orbital Elements at Epoch 2459200.5 (2020-Dec-17.0) TDB
Reference: JPL 21 (heliocentric ecliptic J2000)
Element | Value | Uncertainty (1-sigma) | Units |
e | .264236214694501 | 3.8478e-08 | |
a | 2.601323097122637 | 8.7691e-09 | au |
q | 1.913959328741576 | 1.0038e-07 | au |
i | 6.400698982572329 | 5.622e-06 | deg |
node | 33.29790918845404 | 2.8628e-05 | deg |
peri | 51.96807427704516 | 2.9997e-05 | deg |
M | 157.3007668207261 | 7.9543e-06 | deg |
tp | 2458530.895734628268 (2019-Feb-16.39573463) | 3.3063e-05 | TDB |
period | 1532.462558231227 4.20 | 7.7489e-06 2.122e-08 | d yr |
n | .234916016751178 | 1.1879e-09 | deg/d |
Q | 3.288686865503699 | 1.1086e-08 | au |
|
| | Orbit Determination Parameters
Additional Information
|